Port Lavaca, TX

3:05 PM CDT on May 23, 2017 (GMT -0500)
Port Lavaca

Weather History for KPKV - March, 2013

Change the Weather History Date:

Wednesday, March 20, 2013

  Actual Average (KVCT) Record (KVCT)
Temperature  
Mean Temperature 66 °F -  
Max Temperature 75 °F 75 °F 89 °F (1980)
Min Temperature 57 °F 52 °F 28 °F (1965)
Cooling Degree Days 1    
Growing Degree Days 16 (Base 50)    
Moisture  
Dew Point 54 °F    
Average Humidity 67    
Maximum Humidity 88    
Minimum Humidity 37    
Precipitation  
Precipitation 0.00 in - - ()
Sea Level Pressure  
Sea Level Pressure 30.07 in    
Wind  
Wind Speed 14 mph (ENE)    
Max Wind Speed 26 mph    
Max Gust Speed 36 mph    
Visibility 9 miles    
Events      
Averages and records for this station are not official NWS values.
T = Trace of Precipitation, MM = Missing Value Source: NWS Daily Summary

Daily Weather History Graph

Daily Weather History Graph

Search for Another Location

Airport or City:

Trip Planner

Search our weather history database for the weather conditions in past years. The results will help you decide how hot, cold, wet, or windy it might be!

Date:

Astronomy

Mar. 20, 2013 Rise Set
Actual Time 7:30 AM CDT 7:38 PM CDT
Civil Twilight 7:06 AM CDT 8:01 PM CDT
Nautical Twilight 6:39 AM CDT 8:29 PM CDT
Astronomical Twilight 6:11 AM CDT 8:56 PM CDT
Moon 1:39 PM CDT (3/20) 2:45 AM CDT (3/20)
Length of Visible Light 12h 55m
Length of Day
12h 08m
First Quarter, 59% of the Moon is Illuminated
Mar 20
First Quarter
Mar 27
Full
Apr 2
Last Quarter
Apr 10
New
Apr 18
First Quarter

Hourly Weather History & Observations

Time (CDT) Temp. Dew Point Humidity Pressure Visibility Wind Dir Wind Speed Gust Speed Precip Events Conditions
12:35 AM 68.2 °F 63.9 °F 86% 29.92 in 7.0 mi East 13.8 mph - N/A   Overcast
12:55 AM 68.2 °F 63.9 °F 86% 29.93 in 7.0 mi East 10.4 mph - N/A   Overcast
1:15 AM 68.2 °F 64.0 °F 87% 29.95 in 7.0 mi ENE 6.9 mph - N/A   Overcast
1:35 AM 68.0 °F 63.7 °F 86% 29.93 in 7.0 mi East 9.2 mph - N/A   Overcast
1:55 AM 68.0 °F 63.9 °F 87% 29.95 in 7.0 mi ENE 10.4 mph - N/A   Overcast
2:15 AM 68.0 °F 63.9 °F 87% 29.95 in 7.0 mi NE 10.4 mph - N/A   Overcast
2:35 AM 67.3 °F 63.5 °F 88% 29.95 in 7.0 mi NE 13.8 mph - N/A   Overcast
2:55 AM 67.1 °F 63.5 °F 88% 29.95 in 7.0 mi NE 11.5 mph - N/A   Overcast
3:15 AM 66.7 °F 63.0 °F 88% 29.97 in 7.0 mi NNE 13.8 mph 19.6 mph N/A   Overcast
3:35 AM 66.4 °F 62.6 °F 88% 29.97 in 7.0 mi NNE 12.7 mph - N/A   Overcast
3:55 AM 66.6 °F 62.8 °F 88% 29.98 in 7.0 mi NNE 15.0 mph 18.4 mph N/A   Overcast
4:15 AM 66.6 °F 62.6 °F 87% 29.98 in 7.0 mi NNE 12.7 mph 18.4 mph N/A   Overcast
4:35 AM 66.6 °F 62.2 °F 86% 29.98 in 7.0 mi NNE 16.1 mph 20.7 mph N/A   Overcast
4:55 AM 66.6 °F 62.1 °F 85% 29.99 in 7.0 mi NNE 12.7 mph 19.6 mph N/A   Overcast
5:15 AM 61.9 °F 54.3 °F 76% 30.02 in 10.0 mi North 20.7 mph 33.4 mph N/A   Overcast
5:55 AM 61.9 °F 52.2 °F 70% 30.05 in 10.0 mi NNE 21.9 mph 26.5 mph N/A   Overcast
6:15 AM 61.7 °F 50.2 °F 66% 30.06 in 10.0 mi NNE 20.7 mph 33.4 mph N/A   Overcast
6:35 AM 62.1 °F 48.0 °F 60% 30.08 in 10.0 mi NNE 23.0 mph 34.5 mph N/A   Overcast
6:55 AM 62.6 °F 47.5 °F 58% 30.08 in 10.0 mi NE 23.0 mph 33.4 mph N/A   Overcast
7:15 AM 63.5 °F 48.4 °F 58% 30.09 in 10.0 mi NE 26.5 mph 33.4 mph N/A   Overcast
7:35 AM 62.4 °F 48.2 °F 60% 30.10 in 10.0 mi NE 26.5 mph 35.7 mph N/A   Overcast
7:55 AM 61.7 °F 48.6 °F 62% 30.09 in 10.0 mi ENE 21.9 mph 27.6 mph N/A   Scattered Clouds
8:15 AM 61.9 °F 48.0 °F 60% 30.09 in 10.0 mi ENE 23.0 mph 27.6 mph N/A   Scattered Clouds
8:35 AM 62.2 °F 49.1 °F 62% 30.09 in 10.0 mi ENE 15.0 mph - N/A   Scattered Clouds
8:55 AM 63.0 °F 49.3 °F 61% 30.10 in 10.0 mi NE 16.1 mph 21.9 mph N/A   Clear
9:15 AM 63.5 °F 49.3 °F 60% 30.11 in 10.0 mi NE 16.1 mph - N/A   Clear
9:35 AM 65.5 °F 50.0 °F 57% 30.13 in 10.0 mi NE 15.0 mph 19.6 mph N/A   Clear
9:55 AM 65.8 °F 50.2 °F 57% 30.13 in 10.0 mi NNE 13.8 mph - N/A   Clear
10:15 AM 64.9 °F 50.4 °F 59% 30.15 in 10.0 mi North 17.3 mph 20.7 mph N/A   Clear
10:35 AM 65.5 °F 52.0 °F 62% 30.16 in 10.0 mi NNE 17.3 mph 20.7 mph N/A   Clear
10:55 AM 66.6 °F 54.5 °F 65% 30.16 in 10.0 mi NNE 17.3 mph 23.0 mph N/A   Scattered Clouds
11:15 AM 64.6 °F 54.5 °F 70% 30.17 in 10.0 mi NNE 18.4 mph - N/A   Scattered Clouds
11:35 AM 65.1 °F 54.7 °F 69% 30.17 in 10.0 mi NNE 17.3 mph 23.0 mph N/A   Mostly Cloudy
11:55 AM 66.0 °F 54.7 °F 67% 30.16 in 10.0 mi North 20.7 mph 27.6 mph N/A   Overcast
12:15 PM 67.3 °F 54.9 °F 64% 30.16 in 10.0 mi North 16.1 mph 26.5 mph N/A   Overcast
12:35 PM 68.0 °F 55.2 °F 64% 30.16 in 10.0 mi NNE 19.6 mph 26.5 mph N/A   Mostly Cloudy
12:55 PM 68.0 °F 54.9 °F 63% 30.16 in 10.0 mi NNE 17.3 mph 25.3 mph N/A   Scattered Clouds
1:15 PM 68.2 °F 54.0 °F 60% 30.16 in 10.0 mi NNE 17.3 mph 27.6 mph N/A   Scattered Clouds
1:35 PM 69.4 °F 54.1 °F 58% 30.16 in 10.0 mi NNE 17.3 mph 24.2 mph N/A   Clear
1:55 PM 70.5 °F 54.0 °F 56% 30.14 in 10.0 mi NNE 18.4 mph 24.2 mph N/A   Clear
2:15 PM 71.6 °F 54.0 °F 54% 30.13 in 10.0 mi NNE 12.7 mph 26.5 mph N/A   Clear
2:35 PM 72.3 °F 53.4 °F 51% 30.12 in 10.0 mi NNE 11.5 mph 20.7 mph N/A   Clear
2:55 PM 73.6 °F 51.3 °F 45% 30.11 in 10.0 mi NE 18.4 mph 25.3 mph N/A   Clear
3:15 PM 74.3 °F 49.6 °F 42% 30.10 in 10.0 mi NE 18.4 mph 24.2 mph N/A   Clear
3:35 PM 74.3 °F 49.1 °F 41% 30.09 in 10.0 mi NNE 13.8 mph 23.0 mph N/A   Clear
3:55 PM 75.2 °F 48.6 °F 39% 30.08 in 10.0 mi NE 18.4 mph 25.3 mph N/A   Clear
4:15 PM 75.4 °F 47.7 °F 37% 30.08 in 10.0 mi NE 12.7 mph 19.6 mph N/A   Clear
4:35 PM 75.0 °F 47.8 °F 38% 30.08 in 10.0 mi ENE 11.5 mph - N/A   Clear
4:55 PM 72.7 °F 54.7 °F 53% 30.08 in 10.0 mi ESE 15.0 mph 24.2 mph N/A   Clear
5:15 PM 72.5 °F 53.2 °F 51% 30.08 in 10.0 mi SE 15.0 mph - N/A   Clear
5:35 PM 71.6 °F 53.6 °F 53% 30.07 in 10.0 mi SE 13.8 mph - N/A   Clear
5:55 PM 70.9 °F 53.6 °F 54% 30.06 in 10.0 mi SE 12.7 mph - N/A   Clear
6:15 PM 69.6 °F 52.5 °F 54% 30.06 in 10.0 mi ESE 13.8 mph - N/A   Clear
6:35 PM 70.2 °F 53.6 °F 56% 30.06 in 10.0 mi SE 10.4 mph - N/A   Clear
6:55 PM 69.1 °F 52.5 °F 55% 30.06 in 10.0 mi ESE 10.4 mph - N/A   Clear
7:15 PM 67.1 °F 53.8 °F 62% 30.06 in 10.0 mi ESE 9.2 mph - N/A   Clear
7:35 PM 65.3 °F 54.9 °F 69% 30.06 in 10.0 mi ESE 8.1 mph - N/A   Clear
7:55 PM 64.2 °F 55.0 °F 72% 30.06 in 10.0 mi ESE 9.2 mph - N/A   Clear
8:15 PM 62.4 °F 54.5 °F 75% 30.07 in 10.0 mi SSE 8.1 mph - N/A   Clear
8:35 PM 60.6 °F 54.1 °F 79% 30.07 in 10.0 mi South 4.6 mph - N/A   Clear
9:15 PM 59.4 °F 52.7 °F 79% 30.07 in 10.0 mi South 5.8 mph - N/A   Clear
9:35 PM 59.0 °F 52.7 °F 80% 30.07 in 10.0 mi South 4.6 mph - N/A   Clear
9:55 PM 58.5 °F 52.2 °F 80% 30.07 in 10.0 mi SSE 3.5 mph - N/A   Clear
10:15 PM 58.1 °F 51.8 °F 80% 30.07 in 10.0 mi South 3.5 mph - N/A   Clear
10:35 PM 57.4 °F 52.2 °F 83% 30.07 in 10.0 mi SSE 3.5 mph - N/A   Clear
10:55 PM 57.2 °F 52.5 °F 84% 30.07 in 10.0 mi SE 3.5 mph - N/A   Clear
11:15 PM 57.0 °F 52.3 °F 84% 30.06 in 10.0 mi South 6.9 mph - N/A   Clear
11:55 PM 57.0 °F 51.4 °F 82% 30.05 in 10.0 mi ESE 3.5 mph - N/A   Clear